Weather History for Wisconsin Rapids, WI

Change the Weather History Date:

Wednesday, May 22, 2013

  Actual Average Record
Temperature  
Mean Temperature 56 °F -  
Max Temperature 62 °F 72 °F 92 °F (1975)
Min Temperature 51 °F 46 °F 24 °F (1967)
Degree Days  
Heating Degree Days 8    
Growing Degree Days 6 (Base 50)    
Moisture  
Dew Point 56 °F    
Average Humidity 93    
Maximum Humidity 100    
Minimum Humidity 83    
Precipitation  
Precipitation 1.13 in - - ()
Sea Level Pressure  
Sea Level Pressure 29.74 in    
Wind  
Wind Speed 5 mph (NE)    
Max Wind Speed 17 mph    
Max Gust Speed 23 mph    
Visibility 7 miles    
Events Rain    
Averages and records for this station are not official NWS values.
T = Trace of Precipitation, MM = Missing Value Source: NWS Daily Summary

Daily Weather History Graph

Daily Weather History Graph

Search for Another Location

Airport:

Trip Planner

Search our weather history database for the weather conditions in past years. The results will help you decide how hot, cold, wet, or windy it might be!

Date:

Astronomy

May. 22, 2013 Rise Set
Actual Time 5:25 AM CDT 8:27 PM CDT
Civil Twilight 4:50 AM CDT 9:02 PM CDT
Nautical Twilight 4:06 AM CDT 9:46 PM CDT
Astronomical Twilight 3:13 AM CDT 10:40 PM CDT
Moon 5:44 PM CDT (5/22) 3:35 AM CDT (5/22)
Length of Visible Light 16h 11m
Length of Day
15h 02m
Waxing Gibbous, 91% of the Moon is Illuminated
May 22
Waxing Gibbous
May 24
Full
May 31
Last Quarter
Jun 8
New
Jun 16
First Quarter

Hourly Weather History & Observations

Time (CDT) Temp. Dew Point Humidity Pressure Visibility Wind Dir Wind Speed Gust Speed Precip Events Conditions
12:54 AM 54.0 °F 53.1 °F 97% 29.70 in 10.0 mi Calm Calm - N/A   Clear
1:54 AM 55.0 °F 53.1 °F 93% 29.69 in 10.0 mi Calm Calm - N/A   Overcast
2:54 AM 55.9 °F 54.0 °F 93% 29.69 in 10.0 mi Calm Calm - N/A   Overcast
3:54 AM 54.0 °F 53.1 °F 97% 29.68 in 10.0 mi Calm Calm - N/A   Scattered Clouds
4:54 AM 55.0 °F 54.0 °F 96% 29.68 in 10.0 mi Calm Calm - N/A   Overcast
5:54 AM 57.0 °F 55.0 °F 93% 29.68 in 10.0 mi Calm Calm - N/A   Overcast
6:54 AM 59.0 °F 55.9 °F 90% 29.68 in 10.0 mi Calm Calm - N/A   Overcast
7:54 AM 60.1 °F 55.9 °F 86% 29.68 in 10.0 mi NE 4.6 mph - N/A   Overcast
8:54 AM 61.0 °F 55.9 °F 83% 29.68 in 10.0 mi North 5.8 mph - N/A   Overcast
9:34 AM 60.8 °F 57.2 °F 88% 29.68 in 2.5 mi NNE 8.1 mph - 0.07 in Rain Rain
9:41 AM 60.8 °F 57.2 °F 88% 29.68 in 6.0 mi NNE 6.9 mph - 0.07 in Rain Light Rain
9:54 AM 60.1 °F 57.9 °F 93% 29.68 in 10.0 mi NNE 6.9 mph - 0.07 in Rain Light Rain
10:54 AM 62.1 °F 59.0 °F 90% 29.68 in 10.0 mi NNE 8.1 mph - 0.01 in   Overcast
11:04 AM 62.6 °F 59.0 °F 88% 29.68 in 10.0 mi NE 8.1 mph - N/A   Overcast
11:22 AM 62.6 °F 59.0 °F 88% 29.69 in 10.0 mi Variable 4.6 mph - 0.00 in Rain Light Rain
11:54 AM 61.0 °F 59.0 °F 93% 29.70 in 4.0 mi NE 6.9 mph - 0.02 in Rain Rain
12:06 PM 60.8 °F 59.0 °F 94% 29.69 in 3.0 mi ENE 5.8 mph - 0.04 in Rain Rain
12:11 PM 60.8 °F 59.0 °F 94% 29.70 in 3.0 mi East 4.6 mph - 0.05 in Rain Rain
12:24 PM 60.8 °F 57.2 °F 88% 29.69 in 4.0 mi East 8.1 mph - 0.08 in Rain Rain
12:27 PM 60.8 °F 57.2 °F 88% 29.69 in 4.0 mi East 6.9 mph - 0.09 in Rain Light Rain
12:42 PM 60.8 °F 57.2 °F 88% 29.69 in 6.0 mi East 10.4 mph - 0.09 in Rain Light Rain
12:54 PM 60.1 °F 59.0 °F 96% 29.69 in 6.0 mi East 6.9 mph - 0.10 in Rain Light Rain
1:11 PM 60.8 °F 57.2 °F 88% 29.69 in 8.0 mi East 5.8 mph - 0.00 in Rain Light Rain
1:47 PM 60.8 °F 57.2 °F 88% 29.69 in 6.0 mi ENE 5.8 mph - 0.03 in Rain Light Rain
1:54 PM 60.1 °F 57.9 °F 93% 29.70 in 8.0 mi ENE 4.6 mph - 0.04 in Rain Light Rain
2:01 PM 60.8 °F 57.2 °F 88% 29.70 in 10.0 mi ENE 5.8 mph - 0.00 in Rain Light Rain
2:20 PM 60.8 °F 57.2 °F 88% 29.70 in 10.0 mi East 4.6 mph - 0.00 in Rain Light Rain
2:46 PM 59.0 °F 59.0 °F 100% 29.71 in 2.5 mi Calm Calm - 0.12 in Rain Heavy Rain
2:54 PM 60.1 °F 59.0 °F 96% 29.72 in 1.8 mi Calm Calm - 0.17 in Rain Heavy Rain
2:58 PM 60.8 °F 59.0 °F 94% 29.71 in 1.0 mi Calm Calm - 0.03 in Rain Heavy Rain
3:09 PM 59.0 °F 57.2 °F 94% 29.71 in 1.2 mi Calm Calm - 0.11 in Rain Heavy Rain
3:30 PM 59.0 °F 57.2 °F 94% 29.71 in 1.8 mi East 4.6 mph - 0.24 in Rain Heavy Rain
3:36 PM 59.0 °F 57.2 °F 94% 29.71 in 2.0 mi ENE 3.5 mph - 0.27 in Rain Heavy Rain
3:51 PM 60.8 °F 57.2 °F 88% 29.71 in 3.0 mi NE 8.1 mph - 0.33 in Rain Rain
3:54 PM 60.1 °F 57.9 °F 93% 29.71 in 3.0 mi ENE 8.1 mph - 0.33 in Rain Rain
4:09 PM 60.8 °F 57.2 °F 88% 29.71 in 4.0 mi ENE 4.6 mph - 0.04 in Rain Rain
4:54 PM 59.0 °F 57.9 °F 96% 29.72 in 6.0 mi ENE 9.2 mph - 0.14 in Rain Light Rain
5:54 PM 59.0 °F 57.9 °F 96% 29.73 in 10.0 mi NE 5.8 mph - 0.04 in Rain Light Rain
6:23 PM 59.0 °F 57.2 °F 94% 29.74 in 8.0 mi ENE 10.4 mph - 0.01 in Rain Light Rain
6:29 PM 59.0 °F 57.2 °F 94% 29.74 in 9.0 mi NE 9.2 mph - 0.01 in Rain Light Rain
6:38 PM 57.2 °F 57.2 °F 100% 29.74 in 10.0 mi ENE 9.2 mph - 0.02 in Rain Light Rain
6:45 PM 57.2 °F 57.2 °F 100% 29.74 in 10.0 mi NE 11.5 mph - 0.02 in Rain Light Rain
6:54 PM 57.9 °F 55.9 °F 93% 29.75 in 10.0 mi NE 9.2 mph - 0.02 in Rain Light Rain
7:13 PM 57.2 °F 55.4 °F 94% 29.76 in 10.0 mi NE 10.4 mph 19.6 mph 0.00 in   Overcast
7:41 PM 57.2 °F 55.4 °F 94% 29.77 in 10.0 mi NNE 12.7 mph - 0.00 in Rain Light Rain
7:54 PM 55.9 °F 54.0 °F 93% 29.78 in 10.0 mi NNE 11.5 mph 19.6 mph 0.00 in Rain Light Rain
8:54 PM 54.0 °F 52.0 °F 93% 29.81 in 10.0 mi NNE 13.8 mph 21.9 mph 0.01 in Rain Light Rain
9:21 PM 53.6 °F 51.8 °F 94% 29.81 in 9.0 mi NE 12.7 mph 18.4 mph 0.04 in Rain Light Rain
9:29 PM 53.6 °F 51.8 °F 94% 29.82 in 8.0 mi NNE 15.0 mph 23.0 mph 0.04 in Rain Light Rain
9:40 PM 51.8 °F 50.0 °F 94% 29.83 in 7.0 mi NNE 17.3 mph 23.0 mph 0.05 in Rain Light Rain
9:54 PM 52.0 °F 50.0 °F 93% 29.84 in 7.0 mi NNE 16.1 mph 23.0 mph 0.07 in Rain Light Rain
10:04 PM 51.8 °F 50.0 °F 94% 29.84 in 7.0 mi NE 11.5 mph - 0.01 in Rain Light Rain
10:15 PM 51.8 °F 50.0 °F 94% 29.84 in 8.0 mi NNE 11.5 mph - 0.02 in Rain Light Rain
10:54 PM 52.0 °F 50.0 °F 93% 29.86 in 7.0 mi NNE 10.4 mph - 0.05 in Rain Light Rain
11:18 PM 51.8 °F 50.0 °F 94% 29.86 in 8.0 mi NNE 10.4 mph - 0.02 in Rain Light Rain
11:34 PM 51.8 °F 50.0 °F 94% 29.87 in 7.0 mi NNE 11.5 mph 18.4 mph 0.04 in Rain Light Rain
11:44 PM 51.8 °F 50.0 °F 94% 29.87 in 7.0 mi NNE 10.4 mph - 0.05 in Rain Light Rain
11:51 PM 51.8 °F 50.0 °F 94% 29.87 in 7.0 mi NNE 10.4 mph - 0.06 in Rain Light Rain
11:54 PM 52.0 °F 50.0 °F 93% 29.88 in 7.0 mi NNE 9.2 mph - 0.06 in Rain Rain